TimeEST,TemperatureF,Dew PointF,Humidity,Sea Level PressureIn,VisibilityMPH,Wind Direction,Wind SpeedMPH,Gust SpeedMPH,PrecipitationIn,Events,Conditions,WindDirDegrees,DateUTC
12:15 AM,33.8,23.0,65,30.33,10.0,West,4.6,-,N/A,,Clear,280,2012-11-29 05:15:00
12:35 AM,32.0,23.0,69,30.32,10.0,West,5.8,-,N/A,,Clear,280,2012-11-29 05:35:00
12:55 AM,33.8,23.0,65,30.31,10.0,WNW,6.9,-,N/A,,Clear,290,2012-11-29 05:55:00
1:15 AM,32.0,23.0,69,30.31,10.0,West,5.8,-,N/A,,Clear,280,2012-11-29 06:15:00
1:35 AM,32.0,21.2,64,30.31,10.0,NW,6.9,-,N/A,,Clear,310,2012-11-29 06:35:00
1:55 AM,32.0,21.2,64,30.31,10.0,Calm,Calm,-,N/A,,Clear,0,2012-11-29 06:55:00
2:15 AM,32.0,21.2,64,30.31,10.0,Calm,Calm,-,N/A,,Clear,0,2012-11-29 07:15:00
2:35 AM,32.0,21.2,64,30.32,10.0,Calm,Calm,-,N/A,,Clear,0,2012-11-29 07:35:00
2:55 AM,28.4,21.2,74,30.32,10.0,Calm,Calm,-,N/A,,Clear,0,2012-11-29 07:55:00
3:15 AM,30.2,21.2,69,30.32,10.0,WNW,3.5,-,N/A,,Clear,300,2012-11-29 08:15:00
3:35 AM,30.2,21.2,69,30.32,10.0,Calm,Calm,-,N/A,,Clear,0,2012-11-29 08:35:00
3:55 AM,30.2,21.2,69,30.32,10.0,Calm,Calm,-,N/A,,Clear,0,2012-11-29 08:55:00
4:15 AM,30.2,21.2,69,30.31,10.0,Calm,Calm,-,N/A,,Clear,0,2012-11-29 09:15:00
4:35 AM,30.2,21.2,69,30.32,10.0,Calm,Calm,-,N/A,,Clear,0,2012-11-29 09:35:00
4:55 AM,28.4,21.2,74,30.32,10.0,Calm,Calm,-,N/A,,Clear,0,2012-11-29 09:55:00
5:15 AM,26.6,21.2,80,30.32,10.0,Calm,Calm,-,N/A,,Clear,0,2012-11-29 10:15:00
5:35 AM,26.6,21.2,80,30.33,10.0,Calm,Calm,-,N/A,,Clear,0,2012-11-29 10:35:00
5:55 AM,28.4,21.2,74,30.33,10.0,Calm,Calm,-,N/A,,Clear,0,2012-11-29 10:55:00
6:15 AM,28.4,21.2,74,30.32,10.0,Calm,Calm,-,N/A,,Clear,0,2012-11-29 11:15:00
6:55 AM,28.4,19.4,69,30.33,10.0,Calm,Calm,-,N/A,,Clear,0,2012-11-29 11:55:00
7:15 AM,28.4,19.4,69,30.33,10.0,WSW,4.6,-,N/A,,Clear,240,2012-11-29 12:15:00
7:35 AM,28.4,19.4,69,30.34,10.0,Calm,Calm,-,N/A,,Clear,0,2012-11-29 12:35:00
7:55 AM,30.2,19.4,64,30.34,10.0,Calm,Calm,-,N/A,,Clear,0,2012-11-29 12:55:00
8:15 AM,28.4,19.4,69,30.35,10.0,WSW,3.5,-,N/A,,Clear,240,2012-11-29 13:15:00
8:35 AM,30.2,19.4,64,30.35,10.0,Calm,Calm,-,N/A,,Clear,0,2012-11-29 13:35:00
8:55 AM,32.0,19.4,60,30.36,10.0,Calm,Calm,-,N/A,,Clear,0,2012-11-29 13:55:00
9:15 AM,32.0,19.4,60,30.36,10.0,Calm,Calm,-,N/A,,Clear,0,2012-11-29 14:15:00
9:55 AM,35.6,23.0,60,30.38,10.0,Calm,Calm,-,N/A,,Clear,0,2012-11-29 14:55:00
10:15 AM,35.6,23.0,60,30.38,10.0,Calm,Calm,-,N/A,,Clear,0,2012-11-29 15:15:00
10:35 AM,37.4,21.2,52,30.38,10.0,South,4.6,-,N/A,,Clear,190,2012-11-29 15:35:00
10:55 AM,39.2,21.2,49,30.38,10.0,Calm,Calm,-,N/A,,Clear,0,2012-11-29 15:55:00
11:15 AM,41.0,21.2,45,30.37,10.0,Calm,Calm,-,N/A,,Clear,0,2012-11-29 16:15:00
11:35 AM,42.8,17.6,36,30.37,10.0,Calm,Calm,-,N/A,,Clear,0,2012-11-29 16:35:00
11:55 AM,44.6,17.6,34,30.36,10.0,East,4.6,-,N/A,,Clear,90,2012-11-29 16:55:00
12:15 PM,44.6,17.6,34,30.36,10.0,Calm,Calm,-,N/A,,Clear,0,2012-11-29 17:15:00
12:35 PM,44.6,19.4,37,30.35,10.0,SE,3.5,-,N/A,,Clear,140,2012-11-29 17:35:00
12:55 PM,46.4,19.4,34,30.34,10.0,SE,6.9,-,N/A,,Clear,140,2012-11-29 17:55:00
1:15 PM,46.4,19.4,34,30.33,10.0,SSE,3.5,-,N/A,,Clear,160,2012-11-29 18:15:00
1:35 PM,46.4,19.4,34,30.32,10.0,SE,5.8,-,N/A,,Clear,140,2012-11-29 18:35:00
1:55 PM,48.2,21.2,34,30.31,10.0,SSE,4.6,-,N/A,,Clear,150,2012-11-29 18:55:00
2:15 PM,48.2,21.2,34,30.31,10.0,South,4.6,-,N/A,,Clear,180,2012-11-29 19:15:00
2:35 PM,48.2,21.2,34,30.30,10.0,South,3.5,-,N/A,,Clear,170,2012-11-29 19:35:00
2:55 PM,46.4,21.2,37,30.30,10.0,SSE,3.5,-,N/A,,Clear,150,2012-11-29 19:55:00
3:15 PM,46.4,23.0,40,30.30,10.0,Calm,Calm,-,N/A,,Clear,0,2012-11-29 20:15:00
3:35 PM,46.4,23.0,40,30.30,10.0,SSE,3.5,-,N/A,,Clear,150,2012-11-29 20:35:00
3:55 PM,44.6,23.0,43,30.30,10.0,Calm,Calm,-,N/A,,Clear,0,2012-11-29 20:55:00
4:15 PM,44.6,23.0,43,30.30,10.0,SSE,4.6,-,N/A,,Clear,160,2012-11-29 21:15:00
4:35 PM,42.8,23.0,46,30.31,10.0,SSE,3.5,-,N/A,,Clear,160,2012-11-29 21:35:00
4:55 PM,42.8,23.0,46,30.31,10.0,Calm,Calm,-,N/A,,Clear,0,2012-11-29 21:55:00
5:15 PM,41.0,24.8,53,30.31,10.0,South,3.5,-,N/A,,Clear,170,2012-11-29 22:15:00
5:35 PM,41.0,24.8,53,30.31,10.0,SSE,3.5,-,N/A,,Clear,160,2012-11-29 22:35:00
5:55 PM,39.2,24.8,56,30.31,10.0,SSE,3.5,-,N/A,,Clear,160,2012-11-29 22:55:00
6:15 PM,37.4,24.8,60,30.32,10.0,Calm,Calm,-,N/A,,Clear,0,2012-11-29 23:15:00
7:15 PM,37.4,24.8,60,30.33,10.0,Calm,Calm,-,N/A,,Clear,0,2012-11-30 00:15:00
7:35 PM,37.4,24.8,60,30.33,10.0,Calm,Calm,-,N/A,,Clear,0,2012-11-30 00:35:00
7:55 PM,37.4,24.8,60,30.34,10.0,Calm,Calm,-,N/A,,Clear,0,2012-11-30 00:55:00
8:15 PM,37.4,24.8,60,30.34,10.0,Calm,Calm,-,N/A,,Clear,0,2012-11-30 01:15:00
8:35 PM,35.6,24.8,65,30.34,10.0,Calm,Calm,-,N/A,,Clear,0,2012-11-30 01:35:00
8:55 PM,37.4,24.8,60,30.34,10.0,Calm,Calm,-,N/A,,Clear,0,2012-11-30 01:55:00
9:15 PM,37.4,24.8,60,30.34,10.0,Calm,Calm,-,N/A,,Clear,0,2012-11-30 02:15:00
9:35 PM,35.6,24.8,65,30.34,10.0,Calm,Calm,-,N/A,,Clear,0,2012-11-30 02:35:00
9:55 PM,35.6,26.6,70,30.33,10.0,Calm,Calm,-,N/A,,Clear,0,2012-11-30 02:55:00
10:15 PM,35.6,26.6,70,30.34,10.0,Calm,Calm,-,N/A,,Clear,0,2012-11-30 03:15:00
10:35 PM,33.8,24.8,70,30.33,10.0,Calm,Calm,-,N/A,,Clear,0,2012-11-30 03:35:00
10:55 PM,35.6,26.6,70,30.33,10.0,Calm,Calm,-,N/A,,Clear,0,2012-11-30 03:55:00
11:15 PM,35.6,26.6,70,30.33,10.0,Calm,Calm,-,N/A,,Clear,0,2012-11-30 04:15:00